STARLINK-3292, 50174

Orbit data source: Space-Track

STARLINK-3292, 50174 is a payload satellite owned by SpaceX/Seattle (US) in LEO that was launched on Sat, 18 Dec 2021 UTC via an FALCON 9 launch vehicle from the Air Force Western Test Range (AFWTR). Payload-class satellites include a variety of spacecraft equipped with specific instruments for various scientific and technological missions. These include communications satellites like Starlink; space stations such as the ISS; scientific satellites like the Hubble; Earth observation satellites from companies like Planet Labs, Umbra, and HawkEye 360; GPS; miniature CubeSats for education and research; and military/defense satellites.

Loading next visibility...
Identifier
50174, 2021-125U
Orbit
LEO
Country
Flag of USUS
Related business
Manufacturer
SpaceX/Seattle
Mission
Operational Commercial Communications
Bus & Motor
STARLINK, Unknown motor
Mass
290 kg wet, ~270 kg dry
Launch date (UTC)
2021-12-18 (5 years ago)
Launch vehicle
FALCON 9
Launch site
Air Force Western Test Range (AFWTR)
Object type
Payload
Rocket body
Debris
Shape & HBR
Box + 1 Pan, 10.1 m
Radar Cross Section
13.562 m², Large (>1 m²)

Expand to show TLE details & history
Last TLE update: 7 hours ago

TLE from 7 hours ago
0 STARLINK-3292
1 50174U 21125U   26169.83335647  .00074690  00000-0  38465-2 0  9995
2 50174  53.1597 150.4731 0002577  80.9183  95.4151 15.15746254  5831
Epoch: 2026-06-18T20:00Z
TLE epoch observation values (Epoch: 2026-06-18T20:00:01.999Z)
Latitude
2.84818°
Longitude
121.26943°
Altitude
519.451 km
Speed
7.605 km/s
True Right ascension
21h 53m 23s
True Declination
2° 49' 50"
Sunlit
Object was in full shadow at epoch
Visualization orbit readout
Latitude
Unknown
Longitude
Unknown
Altitude
Unknown
Speed
Unknown
Apparent Right ascension
Unknown
Apparent Declination
Unknown
Sunlit
N/A
Visualization observer readout
Local Sidereal Time
14:00:46
Azimuth
Unknown
Elevation
Unknown
Doppler factor
Unknown
Orbital elements
Apogee altitude
520.746 km
Perigee altitude
517.191 km
Semi-major axis
6,897.106 km
Eccentricity
0.00026
Inclination
53.1597°
RAAN
150.4731°
Arg. of periapsis
80.9183°
True anomaly
95.4445°
Mean anomaly
95.4151°
Eccentric anomaly
95.4298°
Mean motion
3.78916 °/min
Orbital period
95.01 mins
BSTAR
0.0038465
Loading maneuver chart data...
Computing Atmospheric mass density...

Documentation

Showing up to 5 results
|